Погода в Буденновске

Хотите узнать прогноз погоды в Буденновске? Тогда Вам сюда: Погода в Буденновске

Поиск расширенной информации на нашем сайте:

Полезная информация:

Новости сайта



02.01.2020
Опубликован Долгосрочный прогноз погоды по городам России и ближнего зарубежья на январь 2020 года.
Карты: Прогноз на январь и февраль 2020 года, Сравнение прогнозируемой аномалии приземной температуры воздуха на январь 2020 года по разным моделям.




Погода в Буденновске - сегодня

Время (UTC), дата Ветер
(°,м/с) 
Видим.   Явления Облачность Т
(°С)
Тd
(°С)
f(%) Тe
(°С)
Pmin
(гПа)
dP
(гПа)
Po
(мм)
O2
(г/м3)
Тmin Tmax R s Состояние
почвы
06 04.06.20 040 (СВ) 10 км    6/6 600 м 
[Cu hum]
+21.4 +13.9 62 +28  1013  0.3  748  277           
09 04.06.20 060 (СВ) 10 км    9/8 1000 м верхняя 
[Cu med, cong|Ci]
+24.6 +10.6 41 +27  1012.3  -0.5  748  274           
12 04.06.20 100 (В) 3{10}  10 км    9/5 1000 м средняя, верхняя 
[Cu med, cong|Ac trans|Ci fib]
+25.7 +8.8 34 +26  1011.5  -0.8  747  274           
15 04.06.20 090 (В) 10 км  осадки на расстоянии  9/3 600 м кучево-дожд., средняя, верхняя 
[Cb calv|Ac trans|Ci fib]
+25.8 +9 35 +26  1010.9  -0.5  747  273    +27       
18 04.06.20 тихо ()   20000 м    8/3 600 м верхняя 
[Sc diur, vesp|Ci fib]
+21.4 +11.7 54 +25  1011.7  0.5  747  277           
21 04.06.20 320 (СЗ) 8-14{16}  10 км  ливневой дождь  10/10 600 м кучево-дожд. 
[Cb cap]
+16 +13.3 84 +21  1015.7  3.6  750  283           
00 05.06.20 040 (СВ) 2{14}  4000 м  ливневой дождь, в посл. час гроза  10/10 600 м кучево-дожд. 
[Cb cap]
+14.8 +14.1 96 +22  1016.6  0.9  750  284           
03 05.06.20 220 (ЮЗ) 4000 м  слаб. ливневой дождь  10/10 600 м кучево-дожд. 
[Cb calv]
+15 +14.2 95 +23  1018.6  1.9  752  284  +14.6    17     
06 05.06.20 280 (З) 10 км  {ливн. осадки}  6/3 600 м средняя 
[Cu hum|Ac trans]
+19.1 +14 72 +27  1019.5  1.1  753  281           
09 05.06.20 290 (З) 10 км    6/3 600 м верхняя 
[Cu med, cong|Cc]
+23.1 +11 46 +26  1019.1  -0.2  753  278           
12 05.06.20 300 (СЗ) 10 км    6/5 1000 м верхняя 
[Cu med, cong|Ci fib]
+25.3 +9.9 38 +26  1018.6  -0.3  752  276           
15 05.06.20 320 (СЗ) 10 км    4/3 1000 м верхняя 
[Cu med, cong|Cc]
+25.2 +8 33 +25  1018.8  0.1  752  276    +26  0.8     
18 05.06.20 050 (СВ) 20000 м    3/1 600 м верхняя 
[Sc diur, vesp|Ci fib]
+18.9 +12.8 68 +25  1020.2  1.1  753  281           
21 05.06.20 120 (ЮВ) 20000 м    3/0 верхняя 
[Ci fib]
+16.7 +11.8 73 +22  1020  -0.3  753  284           
00 06.06.20 340 (С) 10 км    ясно 
+14.4 +11.7 84 +18  1020.1  753  286           
03 06.06.20 060 (СВ) 10 км    1/0 верхняя 
[Ci fib]
+17.6 +12.8 73 +24  1020.9  0.9  754  283  +13.3        влажная 
06 06.06.20 100 (В) 10 км    3/0 средняя 
[Ac trans]
+23.9 +10.3 42 +25  1021.2  0.7  754  278           
09 06.06.20 150 (ЮВ) 10 км    8/4 1000 м верхняя 
[Cu hum|Ci fib]
+27.8 +8.4 29 +28  1019.7  -1.3  753  274           
12 06.06.20 120 (ЮВ) 10 км    8/3 1000 м средняя, верхняя 
[Cu hum|Ac trans|Ci fib]
+29.3 +7.3 25 +29  1018.3  -1.3  752  273           
15 06.06.20 130 (ЮВ) 10 км    8/3 600 м средняя, верхняя 
[Sc|Ac trans|Ci fib]
+27.9 +7.1 27 +28  1017.4  -1.3  752  274    +29.9       
18 06.06.20 120 (ЮВ) 20000 м    6/0 средняя, верхняя 
[Ac lent|Ci fib]
+22.5 +8.7 41 +23  1018.1  0.4  752  278           
21 06.06.20 090 (В) 20000 м    3/0 средняя 
[Ac trans]
+20.1 +8.8 48 +20  1018  -0.3  752  281           
00 07.06.20 090 (В) 20000 м    3/0 средняя 
[Ac trans]
+18 +10.2 60 +20  1017.5  -0.6  751  282           
03 07.06.20 350 (С) 10 км    3/0 средняя 
[Ac trans]
+17.6 +12.1 70 +22  1017.8  0.3  751  282  +15.3        сухая 
06 07.06.20 110 (В) 10 км    ясно 
+26 +3.1 23 +26  1017.5  0.1  752  276           
Время (UTC), дата Ветер
(°,м/с) 
Видим.   Явления Облачность Т
(°С)
Тd
(°С)
f(%) Тe
(°С)
Pmin
(гПа)
dP
(гПа)
Po
(мм)
O2
(г/м3)
Тmin Tmax R s Состояние
почвы

Для получения пояснительной информации подведите курсор к названию столбца.

ПОГОДА в Буденновске - архив

Всё, что Вы хотите узнать о погоде в Буденновске - удобно и подробно!

Выберите нужную дату (начиная с 1 января 2019* года) и нажмите кнопку "Найти".
Будут отображены архивные сводки погоды по пункту Буденновск, начиная с указанной даты.


Отображать данные в формате CSV (для использования в таблицах Excel)


Внимание! Наш архив погоды предназначен исключительно для личного некоммерческого использования в познавательных целях. Если Вам необходимы официальные справки о состоянии погоды (для производственных, юридических, коммерческих и т.п. целей), обращайтесь в органы Росгидромета.

*Примечание: данная дата относится к архиву по метеостанциям СССР (Россия, СНГ, Балтия).
Архив по метеостанциям Зарубежной Европы и Азии (кроме Китая) хранится 10 дней, по другим регионам земного шара (Китай, Африка, Америка, Австралия, Океания) - 1 день.

Буденновск - район местоположения метеостанции


Название, широта, долгота, высота метеостанции:
Буденновск (Прикумск) 44.8°ш. 44.1°д. 136 м над ур. моря [Российская Федерация]

Дополнительная информация

В oтличие oт бoльшинства пoгoдных сайтoв мы публикуем пoдрoбную метеoинфoрмацию в детальнoм прoфессиoнальнoм фoрмате.

Характеристики температуры и влажнoсти вoздуха измеряются на высoте 2 м в тени вдали oт зданий и деревьев.
Скoрoсть ветра измеряется на высoте 10 м (на урoвне рoста челoвека скoрoсть ветра ниже в 1.5-2 раза). Если метеoстанция нахoдится в гoрoде или в лесу, тo скoрoсть ветра занижена на 2-4 м/с пo сравнению с oткрытым местoм. Скoрoсть ветра над акватoриями крупных рек и oзёр, а также на вершинах хoлмoв на 2-5 м/с выше, чем в oбычных услoвиях.
Атмoсфернoе давление в разных тoчках местнoсти мoжет значительнo oтличаться oт давления на метеoстанции, в зависимoсти oт услoвий рельефа (при пoдъёме на 10 м давление пoнижается примернo на 1 мм рт.ст.).